[[{"header":{"parameterUnit":"m.s-1","parameterCategory":1,"la1":30.2991,"la2":30.254,"lo1":-89.0895,"lo2":-89.0444,"dy":0.0017,"dx":0.0017,"nx":28,"ny":28,"refTime":"2024-11-26T09:00:00:Z","depth":0,"parameterNumber":2,"parameterNumberName":"U-component_of_WINDS"},"data":[0,0,0,0,0,0,0,0,0,0,0,0,0,0,0,0,0,0,0,0,0,0,0,0,0,0,0,0,0,0,0,0,0,0,0,0,0,0,0,0,0,0,0,0,0,0,0,0,0,0,0,0,0,0,0,0,0,0,2.3754,2.3754,0,2.3818,2.3818,2.3819,2.3808,2.3807,2.3805,2.3804,2.3873,2.3876,2.3879,0,0,0,0,0,0,0,0,0,0,0,0,0,2.3625,2.3627,2.3754,2.3754,2.3755,2.3817,2.3818,2.3819,2.3808,2.3807,2.3805,2.3804,2.3872,2.3876,2.3879,0,0,0,0,0,0,0,0,0,0,0,0,0,2.3684,2.3628,2.3753,2.3757,2.3758,2.3817,2.3818,2.3819,2.3808,2.3807,2.3805,2.3803,2.3871,2.3875,2.388,2.394,0,0,2.3893,2.3895,0,0,0,0,0,0,0,0,2.3681,2.3689,2.3756,2.3757,2.3758,2.3803,2.3798,2.386,2.3809,2.3789,2.3804,2.3802,2.3851,2.3857,2.3873,2.3944,2.3947,2.3893,2.3896,2.3898,2.3899,0,0,0,0,0,0,0,2.3677,2.3686,2.3779,2.3757,2.3758,2.3756,2.3763,2.381,2.3829,2.3791,2.379,2.3798,2.3852,2.3869,2.3875,2.3948,2.3893,2.3897,2.39,2.3901,2.4072,2.4073,0,0,0,0,0,0,2.3671,2.3683,2.3777,2.3781,2.3714,2.376,2.3767,2.379,2.3829,2.3833,2.3799,2.3797,2.3862,2.387,2.3877,2.3951,2.3898,2.3902,2.3904,2.407,2.4072,2.4074,0,0,0,0,0,0,2.3668,2.368,2.3774,2.3732,2.3744,2.3764,2.379,2.3792,2.3809,2.3835,2.3839,2.3813,2.3861,2.3871,2.3925,2.3953,2.3904,2.3908,2.4067,2.407,2.4073,2.4098,0,0,0,0,0,0,2.3665,2.3679,2.3701,2.3732,2.3746,2.382,2.3792,2.3795,2.3817,2.3814,2.3849,2.3853,2.3861,2.3918,2.3929,2.3958,2.3911,2.4065,2.4069,2.4072,2.4095,2.4102,2.4107,0,0,0,0,0,2.366,2.3706,2.3702,2.3714,2.3774,2.3821,2.3829,2.3837,2.3819,2.3842,2.3859,2.3852,2.3948,2.3924,2.3936,2.3966,2.4063,2.4068,2.4072,2.4092,2.41,2.4107,0,0,0,0,0,0,2.3679,2.3711,2.3706,2.3764,2.379,2.3819,2.3849,2.3845,2.3877,2.3874,2.3883,2.3891,2.3945,2.3961,2.3934,2.4027,2.4003,2.401,2.4015,2.4023,2.4029,2.4024,2.3915,0,0,0,0,0,2.369,2.3725,2.3751,2.3799,2.3812,2.3828,2.3849,2.3852,2.388,2.3892,2.3912,2.394,2.3977,2.4001,2.4036,2.4097,2.4105,2.4125,2.4131,2.4136,2.4142,2.4176,2.4185,2.4088,2.4088,2.4088,0,0,2.3713,2.3734,2.3756,2.3803,2.3824,2.386,2.3838,2.3877,2.3905,2.3898,2.3949,2.3965,2.3998,2.4055,2.4082,2.4071,2.417,2.4141,2.4145,2.4148,2.4181,2.419,2.4198,2.4091,2.4091,2.409,0,0,2.3773,2.3792,2.3835,2.3856,2.3887,2.3897,2.3907,2.3938,2.3948,2.3999,2.3995,2.4028,2.4091,2.4114,2.4134,2.4203,2.4198,2.4215,2.4247,2.428,2.4287,2.4294,2.4319,2.4328,2.4221,2.4221,2.4221,0,2.3797,2.3851,2.3857,2.3897,2.3918,2.3913,2.3956,2.3977,2.4018,2.4034,2.402,2.4099,2.412,2.4183,2.42,2.4216,2.4229,2.4211,2.4286,2.4293,2.4299,2.4323,2.4332,2.4222,2.4222,2.4222,2.4222,0,2.388,2.3918,2.3948,2.3987,2.4012,2.4054,2.4067,2.4091,2.4093,2.4105,2.4158,2.4183,2.4223,2.4239,2.4241,2.4303,2.4295,2.4283,2.4259,2.431,2.4332,2.4341,2.4225,2.4224,2.4224,2.4223,0,0,2.3953,2.3995,2.4006,2.4024,2.4058,2.4088,2.413,2.4168,2.4189,2.4218,2.4253,2.4307,2.4297,2.4319,2.4324,2.4353,2.4406,2.4339,2.4339,2.435,2.4476,2.4484,2.4494,2.4403,2.4405,2.4407,2.4473,0,2.4016,2.4088,2.4095,2.4161,2.4196,2.4191,2.4228,2.4253,2.4266,2.4299,2.4313,2.4351,2.4335,2.4348,2.4377,2.4394,2.4432,2.4389,2.4437,2.4439,2.4429,2.4506,2.4514,2.4576,2.4482,2.4483,2.4484,0,2.4099,2.4129,2.4198,2.4227,2.4242,2.4275,2.431,2.4341,2.4371,2.4378,2.4403,2.4404,2.4448,2.4423,2.4484,2.4455,2.4475,2.4487,2.4489,2.4494,2.4464,2.4512,2.4595,2.4605,2.4498,2.4497,2.4496,0,2.4145,2.4203,2.4252,2.4267,2.4303,2.4326,2.4342,2.4369,2.4392,2.4424,2.4438,2.4475,2.4496,2.4525,2.4536,2.4516,2.4597,2.4572,2.4605,2.4604,2.4621,2.462,2.4709,2.4635,2.4635,2.4635,2.4635,0,2.4214,2.4256,2.4273,2.4303,2.435,2.4358,2.4405,2.442,2.4445,2.4478,2.4477,2.4509,2.4522,2.4556,2.4565,2.4615,2.4624,2.4632,2.4634,2.4632,2.4631,2.4645,2.4641,2.4637,2.4637,2.4636,2.4636,0,2.4273,2.4286,2.4339,2.4368,2.4376,2.441,2.4435,2.4465,2.4477,2.452,2.453,2.455,2.459,2.4604,2.4653,2.466,2.4717,2.4716,2.4707,2.4707,2.4738,2.4735,2.4839,2.4853,2.4771,2.4771,2.4772,0,2.4316,2.4348,2.4381,2.4403,2.4419,2.4455,2.4477,2.4487,2.4511,2.4547,2.4572,2.4612,2.4644,2.4708,2.4728,2.4766,2.4765,2.4799,2.477,2.4767,2.4765,2.4763,2.4766,2.4804,2.4805,2.4805,2.4806,0,2.4391,2.4396,2.4428,2.4463,2.449,2.4518,2.4546,2.4564,2.4578,2.4605,2.4645,2.467,2.472,2.4759,2.4798,2.4816,2.4814,2.4815,2.4824,2.4822,2.4815,2.4819,2.472,2.4812,2.4812,2.4811,2.4811,2.481,2.4443,2.4471,2.4499,2.4535,2.4556,2.4582,2.4611,2.4627,2.466,2.4701,2.4705,2.4749,2.4778,2.4829,2.4849,2.4884,2.4874,2.4888,2.4892,2.4895,2.4897,2.481,2.4891,2.4891,2.489,2.489,2.489,0,2.4517,2.4535,2.4568,2.4606,2.4635,2.4629,2.466,2.4684,2.4722,2.4749,2.4781,2.4827,2.4866,2.4888,2.4927,2.4951,2.4951,2.4961,2.4959,2.4963,2.4903,2.4891,2.496,2.496,2.496,2.496,2.496,2.496,2.4559,2.4607,2.4615,2.4674,2.4691,2.4733,2.4751,2.4775,2.4796,2.4848,2.4879,2.4894,2.4919,2.496,2.4995,2.5001,2.5015,2.5026,2.5031,2.4974,2.4967,2.496,2.4949,2.5029,2.5029,2.5088,2.5088,2.5089]},{"header":{"parameterUnit":"m.s-1","parameterCategory":1,"la1":30.2991,"la2":30.254,"lo1":-89.0895,"lo2":-89.0444,"dy":0.0017,"dx":0.0017,"nx":28,"ny":28,"refTime":"2024-11-26T09:00:00:Z","depth":0,"parameterNumber":3,"parameterNumberName":"V-component_of_WINDS"},"data":[0,0,0,0,0,0,0,0,0,0,0,0,0,0,0,0,0,0,0,0,0,0,0,0,0,0,0,0,0,0,0,0,0,0,0,0,0,0,0,0,0,0,0,0,0,0,0,0,0,0,0,0,0,0,0,0,0,0,1.5415,1.5416,0,1.5503,1.5504,1.5505,1.5516,1.5515,1.5514,1.5513,1.5604,1.5608,1.5611,0,0,0,0,0,0,0,0,0,0,0,0,0,1.5256,1.5259,1.5415,1.5416,1.5417,1.5503,1.5504,1.5506,1.5516,1.5515,1.5514,1.5513,1.5603,1.5607,1.5611,0,0,0,0,0,0,0,0,0,0,0,0,0,1.5333,1.526,1.5415,1.5433,1.5435,1.5503,1.5504,1.5506,1.5516,1.5515,1.5514,1.5513,1.5602,1.5607,1.5612,1.5668,0,0,1.5626,1.5629,0,0,0,0,0,0,0,0,1.5328,1.5338,1.5429,1.5432,1.5435,1.5497,1.5482,1.556,1.5517,1.5486,1.5513,1.5512,1.557,1.5577,1.5597,1.5672,1.5676,1.5627,1.563,1.5632,1.5633,0,0,0,0,0,0,0,1.5323,1.5335,1.545,1.543,1.5434,1.5437,1.5446,1.5497,1.5534,1.5488,1.5489,1.5499,1.5571,1.5592,1.5599,1.5677,1.5627,1.5631,1.5634,1.5636,1.5802,1.5804,0,0,0,0,0,0,1.5314,1.533,1.5447,1.5453,1.5377,1.544,1.5451,1.5479,1.5533,1.5541,1.55,1.55,1.5584,1.5593,1.5602,1.5672,1.5632,1.5636,1.5639,1.5801,1.5803,1.5804,0,0,0,0,0,0,1.5311,1.5325,1.5444,1.5392,1.5407,1.5445,1.5475,1.5481,1.5502,1.5543,1.5549,1.5515,1.5584,1.5595,1.5651,1.5675,1.5639,1.5643,1.5799,1.5801,1.5804,1.581,0,0,0,0,0,0,1.5306,1.5323,1.5345,1.5392,1.541,1.5491,1.5477,1.5484,1.551,1.551,1.5558,1.5565,1.5584,1.5644,1.5656,1.5681,1.5647,1.5797,1.58,1.5803,1.5808,1.5813,1.5816,0,0,0,0,0,1.53,1.5343,1.5346,1.536,1.5438,1.5492,1.5503,1.5523,1.5512,1.5534,1.556,1.5563,1.567,1.5649,1.5663,1.569,1.5796,1.5799,1.5803,1.5807,1.5812,1.5816,0,0,0,0,0,0,1.5298,1.535,1.5353,1.5413,1.5448,1.5494,1.5523,1.5528,1.5567,1.5566,1.5589,1.56,1.5655,1.5678,1.5654,1.5747,1.5732,1.5738,1.573,1.5736,1.574,1.5733,1.5651,0,0,0,0,0,1.5305,1.5345,1.5388,1.5436,1.5454,1.5485,1.551,1.5522,1.556,1.5575,1.5605,1.5642,1.5684,1.5711,1.5751,1.5811,1.5822,1.5836,1.584,1.5844,1.5849,1.5883,1.589,1.5816,1.5816,1.5815,0,0,1.5318,1.5352,1.5376,1.5436,1.5465,1.5506,1.5498,1.5541,1.5572,1.5582,1.5636,1.566,1.5702,1.576,1.5787,1.5781,1.5872,1.5848,1.585,1.5854,1.5887,1.5894,1.59,1.5818,1.5817,1.5817,0,0,1.5365,1.5394,1.5437,1.5466,1.551,1.553,1.5541,1.5586,1.5602,1.5657,1.5665,1.5702,1.5773,1.5803,1.5827,1.5884,1.5889,1.5897,1.5918,1.5951,1.5957,1.5962,1.5983,1.599,1.5902,1.5902,1.5902,0,1.5377,1.5439,1.5459,1.5503,1.5529,1.5539,1.5584,1.5611,1.5666,1.5684,1.5676,1.5765,1.5795,1.586,1.5874,1.5893,1.5906,1.5892,1.5954,1.596,1.5965,1.5985,1.5993,1.5903,1.5903,1.5903,1.5902,0,1.5451,1.5494,1.5524,1.5577,1.5606,1.565,1.5677,1.5705,1.5715,1.5736,1.5792,1.5827,1.5875,1.5891,1.5902,1.5958,1.5953,1.5949,1.5935,1.5972,1.5992,1.6,1.5904,1.5904,1.5903,1.5903,0,0,1.55,1.5562,1.5573,1.5597,1.5645,1.5679,1.5723,1.577,1.5793,1.5831,1.5868,1.5928,1.5925,1.5953,1.5966,1.5995,1.6038,1.5987,1.5989,1.5996,1.6103,1.6106,1.6115,1.6041,1.6042,1.6043,1.61,0,1.5552,1.5631,1.565,1.5718,1.5758,1.5768,1.5806,1.584,1.5861,1.5898,1.5921,1.5963,1.5955,1.5972,1.6001,1.6026,1.606,1.6023,1.6077,1.6078,1.6066,1.6125,1.6128,1.618,1.6107,1.6108,1.6109,0,1.5624,1.5662,1.5734,1.5777,1.5795,1.5829,1.5873,1.5908,1.5947,1.596,1.5991,1.6001,1.6048,1.603,1.6095,1.6069,1.6092,1.6108,1.611,1.6117,1.6097,1.6133,1.6197,1.6205,1.6121,1.612,1.612,0,1.5653,1.5722,1.5774,1.5794,1.5846,1.587,1.5892,1.593,1.5956,1.5995,1.6013,1.6056,1.608,1.6114,1.6136,1.6121,1.6198,1.6182,1.6211,1.621,1.6228,1.6227,1.6296,1.6241,1.6241,1.6241,1.6241,0,1.571,1.5753,1.5788,1.582,1.5869,1.589,1.5938,1.5961,1.5994,1.6031,1.6041,1.6076,1.6102,1.614,1.6157,1.6208,1.6219,1.6231,1.6235,1.6231,1.6229,1.6247,1.6244,1.6243,1.6242,1.6242,1.6242,0,1.5751,1.5775,1.5833,1.5877,1.5889,1.5923,1.5961,1.5992,1.6013,1.6059,1.6071,1.6104,1.6149,1.6174,1.623,1.6242,1.6299,1.6301,1.6286,1.6288,1.6316,1.6313,1.64,1.6412,1.6348,1.6349,1.6349,0,1.5786,1.5819,1.5867,1.5892,1.5915,1.5955,1.5983,1.6005,1.6033,1.6079,1.6105,1.6151,1.6189,1.626,1.6289,1.6332,1.6336,1.6363,1.6343,1.6337,1.6337,1.6335,1.6339,1.6367,1.6368,1.6368,1.6369,0,1.5846,1.5856,1.5895,1.5938,1.5971,1.6006,1.6041,1.6061,1.6089,1.6119,1.6166,1.6195,1.6252,1.6298,1.6343,1.6366,1.6373,1.6375,1.6384,1.638,1.637,1.6376,1.6297,1.6373,1.6372,1.6372,1.6372,1.6372,1.5885,1.5916,1.5954,1.5997,1.6025,1.6057,1.6089,1.6114,1.6153,1.6201,1.6212,1.626,1.6298,1.636,1.6384,1.6423,1.6417,1.643,1.6434,1.6437,1.6438,1.6363,1.6431,1.6431,1.6431,1.6431,1.6431,0,1.5946,1.5971,1.601,1.6059,1.6092,1.6094,1.6133,1.6161,1.6204,1.6238,1.6275,1.6328,1.6372,1.6404,1.6449,1.6473,1.6477,1.6484,1.6483,1.6489,1.644,1.6428,1.648,1.648,1.648,1.648,1.648,1.648,1.5982,1.6034,1.6049,1.6115,1.6139,1.6187,1.6209,1.6239,1.6266,1.6325,1.6361,1.6382,1.6415,1.6462,1.6503,1.6511,1.6527,1.6534,1.6543,1.6497,1.6492,1.6487,1.6476,1.6537,1.6537,1.6588,1.6589,1.6589]}]]